Weather History for Argentia, NL

Change the Weather History Date:

Thursday, December 20, 2012

  Actual Average Record
Temperature  
Mean Temperature 31 °F -  
Max Temperature 33 °F - - ()
Min Temperature 29 °F - - ()
Degree Days  
Heating Degree Days 34    
Moisture  
Dew Point 25 °F    
Average Humidity 74    
Maximum Humidity 82    
Minimum Humidity 64    
Precipitation  
Precipitation 0.00 in - - ()
Sea Level Pressure  
Sea Level Pressure 29.90 in    
Wind  
Wind Speed 21 mph ()    
Max Wind Speed 29 mph    
Max Gust Speed 39 mph    
T = Trace of Precipitation, MM = Missing Value Source: Averaged Metar Reports

Daily Weather History Graph

Daily Weather History Graph

Search for Another Location

Airport:

Trip Planner

Search our weather history database for the weather conditions in past years. The results will help you decide how hot, cold, wet, or windy it might be!

Date:

Astronomy

Dec. 20, 2012 Rise Set
Actual Time 7:49 AM NST 4:17 PM NST
Civil Twilight 7:13 AM NST 4:53 PM NST
Nautical Twilight 6:34 AM NST 5:32 PM NST
Astronomical Twilight 5:57 AM NST 6:10 PM NST
Moon 11:53 AM NST (12/20) 12:08 AM NST (12/20)
Length of Visible Light 9h 39m
Length of Day
8h 28m
First Quarter, 54% of the Moon is Illuminated
Dec 20
First Quarter
Dec 28
Full
Jan 5
Last Quarter
Jan 11
New
Jan 18
First Quarter

Hourly Weather History & Observations

Time (NST) Temp. Windchill Dew Point Humidity Pressure Visibility Wind Dir Wind Speed Gust Speed Precip Events Conditions
12:30 AM 33.3 °F 19.8 °F 25.5 °F 73% 29.82 in - NE 27.6 mph 38.0 mph N/A   Unknown
1:30 AM 33.3 °F 19.6 °F 25.5 °F 73% 29.80 in - NE 28.8 mph 35.7 mph N/A   Unknown
2:30 AM 33 °F - 26 °F 65% 29.81 in - NE 27.6 mph - -  
2:30 AM 32.9 °F 19.3 °F 25.5 °F 74% 29.81 in - NE 27.6 mph 35.7 mph N/A   Unknown
3:30 AM 31.3 °F 17.9 °F 26.1 °F 81% 29.82 in - NE 24.2 mph 32.2 mph N/A   Unknown
4:30 AM 31.5 °F 17.1 °F 24.6 °F 76% 29.82 in - NE 28.8 mph 39.1 mph N/A   Unknown
5:30 AM 32 °F - 25 °F 65% 29.83 in - NE 26.5 mph - -  
5:30 AM 31.6 °F 17.9 °F 24.6 °F 75% 29.83 in - NE 26.5 mph 34.5 mph N/A   Unknown
6:30 AM 31.5 °F 19.1 °F 25.0 °F 77% 29.83 in - NE 20.7 mph - N/A   Unknown
7:30 AM 31.6 °F 17.6 °F 25.3 °F 78% 29.85 in - NE 27.6 mph 33.4 mph N/A   Unknown
8:30 AM 32 °F - 25 °F 65% 29.87 in - NE 24.2 mph - -  
8:30 AM 31.6 °F 18.4 °F 24.8 °F 76% 29.87 in - NE 24.2 mph - N/A   Unknown
9:30 AM 31.3 °F 17.9 °F 25.7 °F 80% 29.88 in - NE 24.2 mph 31.1 mph N/A   Unknown
10:30 AM 31.6 °F 19.0 °F 25.0 °F 76% 29.90 in - NNE 21.9 mph 34.5 mph N/A   Unknown
11:30 AM 33 °F - 25 °F 64% 29.88 in - NNE 21.9 mph - -  
11:30 AM 32.9 °F 20.7 °F 25.3 °F 74% 29.88 in - NNE 21.9 mph 28.8 mph N/A   Unknown
12:30 PM 31.3 °F 19.2 °F 26.4 °F 82% 29.89 in - NNE 19.6 mph 27.6 mph N/A   Unknown
1:30 PM 31.8 °F 19.6 °F 25.0 °F 76% 29.90 in - NNE 20.7 mph 27.6 mph N/A   Unknown
2:30 PM 31 °F - 24 °F 66% 29.90 in - NNE 18.4 mph - -  
2:30 PM 31.5 °F 19.8 °F 24.1 °F 74% 29.90 in - NNE 18.4 mph 24.2 mph N/A   Unknown
3:30 PM 31.3 °F 19.9 °F 23.9 °F 74% 29.92 in - NNE 17.3 mph - N/A   Unknown
4:30 PM 31.1 °F 19.7 °F 23.7 °F 74% 29.94 in - NNE 17.3 mph 25.3 mph N/A   Unknown
5:30 PM 31 °F - 24 °F 65% 29.94 in - NNE 18.4 mph - -  
5:30 PM 30.9 °F 19.1 °F 23.7 °F 75% 29.94 in - NNE 18.4 mph 27.6 mph N/A   Unknown
6:30 PM 30.7 °F 18.8 °F 24.3 °F 77% 29.95 in - NNE 18.4 mph - N/A   Unknown
7:30 PM 30.9 °F 19.8 °F 24.6 °F 77% 29.97 in - NNE 16.1 mph 23.0 mph N/A   Unknown
8:30 PM 30 °F - 24 °F 69% 29.98 in - NNE 15.0 mph - -  
8:30 PM 30.4 °F 19.5 °F 23.7 °F 76% 29.98 in - NNE 15.0 mph 21.9 mph N/A   Unknown
9:30 PM 30.6 °F 20.7 °F 24.6 °F 79% 29.98 in - NNE 12.7 mph - N/A   Unknown
10:30 PM 29.8 °F 20.9 °F 23.9 °F 79% 29.99 in - NNE 10.4 mph - N/A   Unknown
11:30 PM 30 °F - 24 °F 70% 29.99 in - NNW 15.0 mph - -  
11:30 PM 30.2 °F 19.3 °F 23.9 °F 77% 29.99 in - NNW 15.0 mph - N/A   Unknown